#timestamp,LO_Frequency,Hit 
1502884815.8,286046998.5,N
1502884835.6,286047001.1,N
1502884855.5,286046998.3,N
1502884875.3,286046998.5,N
1502884895.1,286047000.5,N
1502884915.9,286047000.7,N
1502884935.7,286047000.2,N
1502884955.5,286046997.0,N
1502884975.4,286046999.3,N
1502884995.2,286046996.9,N
1502885015.0,286046993.9,N
1502885015.9,286046993.9,N
1502885035.8,286046994.3,N
1502885055.6,286046994.7,N
1502885075.4,286046994.7,N
1502885095.3,286046994.5,N
1502885115.1,286046991.7,N
1502885116.0,286046991.7,N
1502885135.8,286046992.2,N
1502885155.7,286046995.7,N
1502885175.5,286046997.3,N
1502885195.3,286046996.5,N
1502885215.1,286046998.4,N
1502885235.9,286046998.7,N
1502885255.7,286046996.5,N
1502885275.5,286046999.0,N
1502885295.4,286046997.7,N
1502885315.2,286046996.7,N
1502885335.0,286046999.2,N
1502885335.9,286046999.2,N
1502885355.8,286047001.2,N
1502885375.6,286046998.9,N
1502885395.4,286046999.1,N
1502885415.3,286046998.7,N
1502885435.1,286046999.5,N
1502885436.0,286046999.5,N
1502885455.8,286046999.5,N
1502885475.7,286046998.7,N
1502885495.5,286046999.0,N
1502885515.3,286046998.9,N
1502885535.2,286046998.4,N
1502885555.9,286047000.5,N
1502885575.7,286046996.6,N
1502885595.5,286046997.3,N
1502885615.4,286046993.9,N
1502885635.2,286046992.2,P
1502885655.0,286046997.5,N
1502885656.0,286046997.5,N
1502885675.8,286046995.8,N
1502885695.6,286046997.7,N
1502885715.4,286046998.8,N
1502885735.3,286046999.2,N
1502885755.1,286046999.1,N
1502885775.8,286046997.5,N
1502885795.7,286046995.8,N
1502885815.5,286046993.5,P
1502885835.3,286046998.4,N
1502885855.2,286046998.3,N
1502885875.0,286046999.8,N
1502885875.9,286046999.8,N
1502885895.7,286047003.8,N
1502885915.6,286046999.7,N
1502885935.4,286047000.7,N
1502885955.2,286047002.5,N
1502885975.1,286046999.7,N
1502885976.0,286046999.7,N
1502885995.8,286047002.5,N
1502886015.6,286047000.7,N
1502886035.5,286046998.8,N
1502886055.3,286046998.6,N
1502886075.1,286046999.4,N
1502886095.9,286046998.4,N
1502886115.7,286047000.0,N
1502886135.5,286047000.9,N
1502886155.3,286046999.7,N
1502886175.2,286047000.3,N
1502886195.0,286047002.7,N
1502886195.9,286047002.7,N
1502886215.7,286047000.9,N
1502886235.6,286047000.2,N
1502886255.4,286046998.6,N
1502886275.7,286046997.2,N
1502886295.5,286046996.1,N
1502886315.3,286046992.1,P
1502886335.2,286046992.8,N
1502886355.9,286046994.8,N
1502886375.7,286046991.7,N
1502886395.6,286046993.5,N
1502886415.4,286046993.8,N
1502886435.2,286046997.1,N
1502886455.1,286046999.3,N
1502886456.0,286046999.3,N
1502886475.8,286046998.1,N
1502886495.6,286046997.6,N
1502886515.5,286046999.5,N
1502886535.3,286046997.0,N
1502886555.1,286046995.1,N
1502886575.8,286046997.4,N
1502886595.7,286046995.6,N
1502886615.5,286046994.4,N
1502886635.3,286046992.9,N
1502886655.2,286046992.4,N
1502886675.9,286046993.9,N
1502886695.7,286046990.4,P
1502886715.6,286046995.1,N
1502886735.4,286046998.3,N
1502886755.2,286046997.1,N
1502886775.1,286046997.1,N
1502886776.0,286046997.1,N
1502886795.8,286046997.5,N
1502886815.6,286046993.9,N
1502886835.5,286046995.1,N
1502886855.3,286046996.0,N
1502886875.1,286046996.9,N
1502886895.8,286046995.4,N
1502886915.7,286046994.5,N
1502886935.5,286046996.1,N
1502886955.3,286046995.6,N
1502886975.2,286046995.5,N
1502886995.0,286046993.4,P
1502886995.9,286046993.4,P
1502887015.8,286046999.9,N
1502887035.6,286047000.5,N
1502887055.4,286047000.6,N
1502887075.2,286047004.4,N
1502887095.1,286047005.3,N
1502887096.0,286047005.3,N
1502887115.8,286047005.5,N
1502887135.6,286047000.2,N
1502887155.5,286046998.3,N
1502887175.3,286047000.4,N
1502887195.1,286047002.3,N
1502887215.9,286047003.5,N
1502887235.7,286047003.8,N
1502887255.5,286047006.0,N
1502887275.4,286047005.7,N
1502887295.2,286047001.7,N
1502887315.0,286046999.9,N
1502887315.9,286046999.9,N
1502887335.8,286046999.3,N
1502887355.6,286046998.3,N
1502887375.4,286046999.1,N
1502887395.2,286046997.0,N
1502887415.1,286046996.6,N
1502887416.0,286046996.6,N
1502887435.8,286046997.2,N
1502887455.6,286046994.9,N
1502887475.5,286046996.8,N
1502887495.3,286046998.3,N
1502887515.1,286046996.7,N
1502887535.9,286047001.1,N
1502887555.7,286046994.9,N
1502887575.5,286046997.7,N
1502887595.4,286046997.6,N
1502887615.2,286046993.3,N
1502887635.0,286046997.5,N
1502887635.9,286046997.5,N
1502887655.8,286046994.9,N
1502887675.6,286046996.9,N
1502887695.4,286046996.7,N
1502887715.3,286047000.6,N
1502887735.1,286046999.3,N
1502887736.0,286046999.3,N
1502887755.8,286046998.8,N
1502887775.7,286046999.6,N
1502887795.5,286046995.1,N
1502887815.3,286046995.6,N
1502887835.2,286046993.6,P
1502887855.9,286046996.5,N
1502887875.7,286047000.2,N
1502887895.5,286047002.6,N
1502887915.4,286047000.8,N
1502887935.2,286046997.5,N
1502887955.0,286046999.3,N
1502887955.9,286046999.3,N
1502887975.8,286047001.0,N
1502887995.6,286046999.5,N
1502888015.4,286046995.5,N
1502888035.3,286046995.2,N
1502888055.1,286046998.8,N
1502888075.8,286047000.9,N
1502888095.7,286047001.2,N
1502888115.5,286047000.3,N
1502888135.3,286046998.6,N
1502888155.2,286046999.3,N
1502888175.9,286046997.1,N
1502888195.7,286046995.5,N
1502888215.5,286046995.6,N
1502888235.4,286046995.3,N
1502888255.2,286046997.2,N
1502888275.0,286046996.8,N
1502888275.9,286046996.8,N
1502888295.8,286046997.6,N
1502888315.6,286046996.6,N
1502888335.4,286046999.0,N
1502888355.3,286047001.1,N
1502888375.1,286046998.5,N
1502888376.0,286046998.5,N
1502888395.8,286046995.0,N
